STARLINK-2589

operational
NORAD ID: 48371 Int'l Des: 2021-038 Owner: SPXS Country: US Constellation: starlink
LEOCIRCULARSTARLINK_TYPE

关于 STARLINK-2589

正在加载描述...

实时位置

正在加载3D地球...

即将过境

高度历史

Altitude vs Time

uPlot chart will show altitude changes over time

两行轨道根数

1 48371U 21038U 25250.97590689 -.00000200 00000-0 54784-5 0 9990
2 48371 53.0536 91.8514 0001414 94.8845 265.2305 15.06391998239629
Epoch: Sep 7, 2025 • Age: 25 hours

当前状态

高度 566.7 km
速度 7.58 km/s
星下点 -53.20°S, 1.65°E
发射日期 May 4, 2021
运行时间 4.3 years
类型 internet

技术详情

分类 Payload
质量 260.00 kg
干质量 248.00 kg
总质量 260.00 kg
长度 0.20 m
直径 2.80 m
跨度 9.00 m
形状 Box + pan
制造商 SPXS
平台类型 Starlink
阶段状态 In Orbit
所有者/国家 SPXS/US

大型星座

Loading constellations...